�������l�o���
Date,Time,MP-1(��Sv/h),MP-2(��Sv/h),MP-3(��Sv/h),MP-4(��Sv/h),MP-5(��Sv/h),MP-6(��Sv/h),MP-7(��Sv/h),����,����(m/s),���J
2019/03/26,00:00,0.206,0.189,0.313,0.293,0.278,0.156,0.095,�k,0.6,��
2019/03/26,00:10,0.206,0.189,0.312,0.292,0.278,0.157,0.095,�k�k��,2.1,��
2019/03/26,00:20,0.205,0.190,0.313,0.295,0.277,0.156,0.095,-,CALM,��
2019/03/26,00:30,0.207,0.190,0.313,0.294,0.276,0.156,0.095,�k��,1.9,��
2019/03/26,00:40,0.206,0.190,0.313,0.293,0.278,0.155,0.095,�k�k��,4.6,��
2019/03/26,00:50,0.207,0.190,0.312,0.293,0.277,0.156,0.095,�k�k��,5.6,��
2019/03/26,01:00,0.205,0.189,0.313,0.294,0.276,0.157,0.096,�k�k��,4.4,��
2019/03/26,01:10,0.207,0.190,0.314,0.292,0.278,0.156,0.094,�k��,4.4,��
2019/03/26,01:20,0.205,0.190,0.313,0.292,0.277,0.156,0.095,�k��,6.2,��
2019/03/26,01:30,0.207,0.191,0.313,0.294,0.278,0.156,0.095,�k��,4.8,��
2019/03/26,01:40,0.206,0.190,0.314,0.294,0.277,0.156,0.095,�k�k��,3.1,��
2019/03/26,01:50,0.206,0.190,0.313,0.294,0.276,0.156,0.095,�k,1.8,��
2019/03/26,02:00,0.206,0.191,0.313,0.293,0.276,0.157,0.095,�k��,1.0,��
2019/03/26,02:10,0.208,0.189,0.314,0.293,0.278,0.156,0.095,�k,1.8,��
2019/03/26,02:20,0.206,0.189,0.314,0.293,0.277,0.157,0.094,�k,1.7,��
2019/03/26,02:30,0.206,0.190,0.312,0.293,0.278,0.157,0.095,�k��,1.8,��
2019/03/26,02:40,0.205,0.190,0.314,0.293,0.278,0.156,0.095,��,0.9,��
2019/03/26,02:50,0.205,0.190,0.314,0.292,0.278,0.156,0.094,-,CALM,��
2019/03/26,03:00,0.206,0.190,0.313,0.292,0.277,0.156,0.095,�k�k��,1.0,��
2019/03/26,03:10,0.206,0.190,0.313,0.294,0.278,0.155,0.094,���k��,0.7,��
2019/03/26,03:20,0.206,0.190,0.313,0.294,0.276,0.155,0.094,-,CALM,��
2019/03/26,03:30,0.206,0.190,0.314,0.293,0.278,0.156,0.095,�k,1.4,��
2019/03/26,03:40,0.206,0.191,0.312,0.293,0.277,0.156,0.094,�k�k��,1.9,��
2019/03/26,03:50,0.206,0.190,0.314,0.294,0.277,0.156,0.095,�k�k��,2.1,��
2019/03/26,04:00,0.206,0.190,0.312,0.293,0.276,0.156,0.094,�k,3.2,��
2019/03/26,04:10,0.205,0.190,0.313,0.293,0.277,0.156,0.094,�k,3.1,��
2019/03/26,04:20,0.205,0.190,0.313,0.294,0.277,0.157,0.095,�k�k��,3.3,��
2019/03/26,04:30,0.206,0.190,0.315,0.294,0.275,0.156,0.096,�k,2.8,��
2019/03/26,04:40,0.206,0.190,0.312,0.293,0.279,0.155,0.095,�k�k��,2.3,��
2019/03/26,04:50,0.206,0.191,0.313,0.293,0.277,0.156,0.096,���k��,1.1,��
2019/03/26,05:00,0.206,0.190,0.313,0.292,0.277,0.155,0.094,���쐼,0.8,��
2019/03/26,05:10,0.205,0.190,0.314,0.294,0.277,0.157,0.095,��쐼,0.9,��
2019/03/26,05:20,0.206,0.190,0.312,0.293,0.277,0.157,0.095,��,1.0,��
2019/03/26,05:30,0.206,0.190,0.312,0.295,0.277,0.155,0.094,��,1.2,��
2019/03/26,05:40,0.206,0.191,0.313,0.294,0.276,0.156,0.094,��,1.5,��
2019/03/26,05:50,0.207,0.189,0.315,0.294,0.277,0.155,0.095,��,2.5,��
2019/03/26,06:00,0.206,0.189,0.314,0.293,0.276,0.156,0.095,��,2.8,��
2019/03/26,06:10,0.206,0.191,0.314,0.294,0.278,0.156,0.095,��,3.0,��
2019/03/26,06:20,0.207,0.190,0.314,0.294,0.278,0.156,0.095,��,2.7,��
2019/03/26,06:30,0.206,0.189,0.315,0.293,0.278,0.155,0.095,��,3.2,��
2019/03/26,06:40,0.206,0.190,0.313,0.292,0.278,0.156,0.096,��쓌,2.6,��
2019/03/26,06:50,0.206,0.190,0.313,0.293,0.277,0.155,0.095,��,2.6,��
2019/03/26,07:00,0.207,0.190,0.313,0.292,0.277,0.156,0.095,��,2.8,��
2019/03/26,07:10,0.208,0.190,0.313,0.293,0.278,0.157,0.094,��쐼,3.6,��
2019/03/26,07:20,0.206,0.191,0.312,0.294,0.278,0.156,0.094,��쐼,2.9,��
2019/03/26,07:30,0.208,0.190,0.314,0.292,0.277,0.157,0.094,��쐼,3.0,��
2019/03/26,07:40,0.207,0.190,0.311,0.290,0.278,0.157,0.095,��쐼,2.3,��
2019/03/26,07:50,0.206,0.190,0.313,0.292,0.277,0.156,0.094,��,2.0,��
2019/03/26,08:00,0.207,0.190,0.315,0.291,0.277,0.156,0.094,��쓌,2.6,��
2019/03/26,08:10,0.206,0.190,0.312,0.291,0.279,0.156,0.094,��,3.5,��
2019/03/26,08:20,0.206,0.187,0.313,0.291,0.277,0.155,0.095,�쓌,3.3,��
2019/03/26,08:30,0.207,0.189,0.314,0.292,0.277,0.155,0.094,�쓌,2.8,��
2019/03/26,08:40,0.205,0.188,0.311,0.292,0.278,0.156,0.095,�쓌,3.0,��
2019/03/26,08:50,0.205,0.189,0.314,0.293,0.277,0.155,0.095,��쓌,3.2,��
2019/03/26,09:00,0.206,0.188,0.312,0.291,0.278,0.156,0.094,�쓌,3.1,��
2019/03/26,09:10,0.204,0.191,0.312,0.292,0.276,0.155,0.094,��쓌,3.2,��
2019/03/26,09:20,0.207,0.188,0.313,0.292,0.278,0.155,0.094,�쓌,2.9,��
2019/03/26,09:30,0.205,0.190,0.312,0.292,0.276,0.156,0.095,��쓌,2.5,��
2019/03/26,09:40,0.205,0.188,0.314,0.294,0.279,0.156,0.094,��쓌,3.4,��
2019/03/26,09:50,0.205,0.190,0.312,0.292,0.277,0.156,0.095,��쓌,4.1,��
2019/03/26,10:00,0.207,0.190,0.314,0.294,0.278,0.156,0.094,��쓌,3.7,��
2019/03/26,10:10,0.205,0.189,0.313,0.291,0.277,0.156,0.095,��쓌,3.8,��
2019/03/26,10:20,0.207,0.188,0.314,0.294,0.278,0.156,0.096,��쓌,3.7,��
2019/03/26,10:30,0.204,0.190,0.311,0.290,0.277,0.156,0.095,��쓌,2.2,��
2019/03/26,10:40,0.207,0.190,0.312,0.294,0.278,0.156,0.094,��쓌,1.9,��
2019/03/26,10:50,0.205,0.189,0.314,0.292,0.280,0.155,0.094,��쓌,3.2,��
2019/03/26,11:00,0.206,0.190,0.313,0.295,0.276,0.156,0.095,��쓌,2.8,��
2019/03/26,11:10,0.206,0.189,0.313,0.291,0.277,0.156,0.094,��쓌,4.6,��
2019/03/26,11:20,0.205,0.189,0.313,0.295,0.277,0.155,0.094,��쓌,5.2,��
2019/03/26,11:30,0.205,0.190,0.311,0.291,0.276,0.156,0.094,��쓌,5.2,��
2019/03/26,11:40,0.206,0.189,0.312,0.293,0.278,0.156,0.095,��쓌,5.2,��
2019/03/26,11:50,0.206,0.191,0.312,0.293,0.277,0.155,0.094,��쓌,5.4,��
2019/03/26,12:00,0.206,0.189,0.314,0.292,0.279,0.157,0.095,��쓌,5.9,��
2019/03/26,12:10,0.205,0.190,0.312,0.292,0.276,0.156,0.095,��쓌,5.6,��
2019/03/26,12:20,0.206,0.189,0.315,0.293,0.280,0.156,0.095,��쓌,6.1,��
2019/03/26,12:30,0.206,0.191,0.312,0.293,0.276,0.157,0.094,��쓌,5.9,��
2019/03/26,12:40,0.207,0.189,0.314,0.294,0.279,0.156,0.095,��,6.2,��
2019/03/26,12:50,0.204,0.190,0.311,0.293,0.278,0.156,0.094,��,6.3,��
2019/03/26,13:00,0.207,0.190,0.313,0.293,0.278,0.156,0.094,��쓌,6.2,��
2019/03/26,13:10,0.206,0.189,0.311,0.292,0.278,0.156,0.094,��,7.1,��
2019/03/26,13:20,0.206,0.188,0.314,0.293,0.276,0.156,0.095,��쓌,7.6,��
2019/03/26,13:30,0.207,0.190,0.312,0.293,0.279,0.157,0.093,��쓌,7.0,��
2019/03/26,13:40,0.204,0.188,0.313,0.292,0.276,0.155,0.094,��쓌,6.5,��
2019/03/26,13:50,0.207,0.191,0.312,0.294,0.277,0.156,0.094,��쓌,7.3,��
2019/03/26,14:00,0.206,0.189,0.314,0.292,0.278,0.156,0.094,��쓌,7.4,��
2019/03/26,14:10,0.205,0.190,0.314,0.294,0.277,0.157,0.095,��,8.2,��
2019/03/26,14:20,0.206,0.190,0.313,0.293,0.279,0.156,0.096,��쓌,7.3,��
2019/03/26,14:30,0.206,0.189,0.314,0.293,0.278,0.157,0.095,��쓌,7.3,��
2019/03/26,14:40,0.206,0.189,0.313,0.293,0.278,0.156,0.095,��쓌,6.7,��
2019/03/26,14:50,0.205,0.190,0.313,0.293,0.276,0.155,0.094,��쓌,7.6,��
2019/03/26,15:00,0.206,0.190,0.312,0.291,0.278,0.155,0.095,��쓌,6.2,��
2019/03/26,15:10,0.205,0.190,0.313,0.294,0.276,0.156,0.095,�쓌,5.6,��
2019/03/26,15:20,0.204,0.190,0.312,0.292,0.279,0.156,0.095,��쓌,5.9,��
2019/03/26,15:30,0.206,0.190,0.314,0.292,0.278,0.155,0.094,��쓌,7.6,��
2019/03/26,15:40,0.204,0.190,0.313,0.292,0.277,0.157,0.095,��쓌,5.9,��
2019/03/26,15:50,0.206,0.191,0.314,0.294,0.279,0.155,0.094,��,6.2,��
2019/03/26,16:00,0.205,0.190,0.312,0.294,0.276,0.156,0.094,��쓌,5.7,��
2019/03/26,16:10,0.206,0.190,0.314,0.294,0.279,0.156,0.095,��쓌,5.6,��
2019/03/26,16:20,0.205,0.190,0.314,0.294,0.275,0.155,0.095,��쓌,5.5,��
2019/03/26,16:30,0.206,0.190,0.312,0.293,0.278,0.156,0.095,��쓌,6.5,��
2019/03/26,16:40,0.206,0.191,0.316,0.295,0.278,0.157,0.095,��쓌,5.2,��
2019/03/26,16:50,0.207,0.189,0.313,0.293,0.278,0.155,0.095,��,6.4,��
2019/03/26,17:00,0.206,0.191,0.315,0.294,0.277,0.156,0.095,��쓌,6.6,��
2019/03/26,17:10,0.207,0.191,0.312,0.295,0.279,0.156,0.095,��쓌,6.0,��
2019/03/26,17:20,0.207,0.190,0.315,0.293,0.277,0.155,0.095,��,6.5,��
2019/03/26,17:30,0.207,0.191,0.315,0.293,0.279,0.156,0.094,��,5.3,��
2019/03/26,17:40,0.207,0.190,0.314,0.294,0.278,0.156,0.095,���쐼,2.3,��
2019/03/26,17:50,0.206,0.190,0.315,0.294,0.279,0.156,0.094,���k��,2.8,��
2019/03/26,18:00,0.206,0.190,0.314,0.294,0.278,0.156,0.095,�k��,6.3,��
2019/03/26,18:10,0.207,0.190,0.313,0.293,0.279,0.157,0.095,�k��,7.0,��
2019/03/26,18:20,0.205,0.192,0.314,0.295,0.280,0.155,0.094,�k�k��,5.9,��
2019/03/26,18:30,0.206,0.191,0.315,0.294,0.278,0.157,0.095,�k�k��,5.9,��
2019/03/26,18:40,0.205,0.188,0.314,0.292,0.279,0.156,0.094,�k��,4.9,��
2019/03/26,18:50,0.207,0.190,0.315,0.294,0.279,0.157,0.095,�k��,6.3,��
2019/03/26,19:00,0.206,0.190,0.313,0.294,0.278,0.156,0.094,���k��,8.5,��
2019/03/26,19:10,0.206,0.190,0.313,0.293,0.279,0.157,0.094,�k��,7.0,��
2019/03/26,19:20,0.206,0.190,0.314,0.294,0.277,0.157,0.094,�k��,7.0,��
2019/03/26,19:30,0.206,0.190,0.314,0.293,0.279,0.156,0.095,�k��,7.3,��
2019/03/26,19:40,0.206,0.191,0.316,0.293,0.278,0.157,0.095,�k��,4.8,��
2019/03/26,19:50,0.207,0.191,0.313,0.294,0.279,0.156,0.094,�k��,2.3,��
2019/03/26,20:00,0.205,0.191,0.315,0.294,0.278,0.157,0.095,��,3.7,��
2019/03/26,20:10,0.207,0.191,0.315,0.294,0.278,0.157,0.095,��,5.6,��
2019/03/26,20:20,0.206,0.190,0.314,0.296,0.280,0.156,0.095,��,5.9,��
2019/03/26,20:30,0.206,0.190,0.313,0.293,0.279,0.156,0.095,���k��,7.6,��
2019/03/26,20:40,0.207,0.191,0.314,0.293,0.279,0.156,0.094,���k��,6.8,��
2019/03/26,20:50,0.207,0.190,0.312,0.295,0.278,0.156,0.094,�k��,6.0,��
2019/03/26,21:00,0.205,0.191,0.314,0.294,0.279,0.156,0.095,�k��,5.2,��
2019/03/26,21:10,0.207,0.190,0.313,0.294,0.278,0.157,0.094,�k��,3.8,��
2019/03/26,21:20,0.207,0.190,0.315,0.294,0.277,0.156,0.095,�k��,4.3,��
2019/03/26,21:30,0.207,0.191,0.314,0.293,0.278,0.157,0.095,�k�k��,3.8,��
2019/03/26,21:40,0.207,0.191,0.315,0.294,0.278,0.156,0.094,�k��,2.9,��
2019/03/26,21:50,0.206,0.190,0.314,0.295,0.279,0.157,0.095,�k��,2.7,��
2019/03/26,22:00,0.206,0.191,0.315,0.293,0.277,0.156,0.095,�k�k��,3.5,��
2019/03/26,22:10,0.206,0.190,0.314,0.294,0.278,0.157,0.095,�k��,3.2,��
2019/03/26,22:20,0.207,0.190,0.314,0.294,0.278,0.156,0.096,�k��,4.2,��
2019/03/26,22:30,0.206,0.190,0.314,0.294,0.278,0.157,0.094,�k�k��,4.6,��
2019/03/26,22:40,0.206,0.189,0.315,0.293,0.277,0.156,0.095,�k��,4.8,��
2019/03/26,22:50,0.206,0.191,0.315,0.293,0.279,0.156,0.095,�k��,7.6,��
2019/03/26,23:00,0.207,0.191,0.313,0.295,0.277,0.157,0.094,���k��,6.4,��
2019/03/26,23:10,0.208,0.192,0.315,0.294,0.276,0.156,0.095,���k��,7.0,��
2019/03/26,23:20,0.207,0.189,0.313,0.294,0.279,0.157,0.095,���k��,5.4,��
2019/03/26,23:30,0.207,0.190,0.313,0.294,0.277,0.157,0.095,���k��,5.9,��
2019/03/26,23:40,0.206,0.190,0.315,0.296,0.277,0.156,0.096,�k��,5.9,��
2019/03/26,23:50,0.207,0.191,0.314,0.294,0.279,0.156,0.095,���k��,4.4,��
